Time,TemperatureF,DewpointF,PressureIn,WindDirection,WindDirectionDegrees,WindSpeedMPH,WindSpeedGustMPH,Humidity,HourlyPrecipIn,Conditions,Clouds,dailyrainin,SoftwareType,DateUTC
2013-01-29 00:03:00,31.7,31.5,29.54,ENE,71,10.0,10.0,99,0.00,,---,0.00,VWS V14.01,2013-01-29 06:03:00,
2013-01-29 00:08:00,31.7,31.5,29.53,ENE,67,10.0,13.0,99,0.00,,---,0.00,VWS V14.01,2013-01-29 06:08:00,
2013-01-29 00:13:00,31.8,31.5,29.52,ENE,69,6.0,14.0,99,0.00,,---,0.00,VWS V14.01,2013-01-29 06:13:00,
2013-01-29 00:18:00,31.8,31.5,29.53,East,92,5.0,14.0,99,0.00,,---,0.00,VWS V14.01,2013-01-29 06:18:00,
2013-01-29 00:23:00,31.8,31.5,29.52,ESE,105,9.0,14.0,99,0.00,,---,0.00,VWS V14.01,2013-01-29 06:23:00,
2013-01-29 00:28:00,31.9,31.6,29.51,ENE,68,4.0,14.0,99,0.00,,---,0.00,VWS V14.01,2013-01-29 06:28:00,
2013-01-29 00:33:00,31.9,31.6,29.49,ENE,65,6.0,14.0,99,0.00,,---,0.00,VWS V14.01,2013-01-29 06:33:00,
2013-01-29 00:38:00,31.8,31.5,29.48,ENE,66,7.0,15.0,99,0.00,,---,0.00,VWS V14.01,2013-01-29 06:38:00,
2013-01-29 00:43:00,31.9,31.6,29.48,East,88,9.0,15.0,99,0.00,,---,0.00,VWS V14.01,2013-01-29 06:43:00,
2013-01-29 00:48:00,31.8,31.5,29.48,East,82,4.0,19.0,99,0.00,,---,0.00,VWS V14.01,2013-01-29 06:48:00,
2013-01-29 00:53:00,31.8,31.5,29.48,ENE,74,5.0,19.0,99,0.00,,---,0.00,VWS V14.01,2013-01-29 06:53:00,
2013-01-29 00:58:00,31.9,31.6,29.50,ESE,119,4.0,19.0,99,0.00,,---,0.00,VWS V14.01,2013-01-29 06:58:00,
2013-01-29 01:03:00,31.9,31.6,29.50,ESE,119,4.0,9.0,99,0.00,,---,0.00,VWS V14.01,2013-01-29 07:03:00,
2013-01-29 01:08:00,31.9,31.6,29.50,ESE,105,6.0,12.0,99,0.00,,---,0.00,VWS V14.01,2013-01-29 07:08:00,
2013-01-29 01:13:00,31.9,31.6,29.49,ESE,111,6.0,12.0,99,0.00,,---,0.00,VWS V14.01,2013-01-29 07:13:00,
2013-01-29 01:18:00,31.9,31.6,29.49,ENE,67,4.0,12.0,99,0.00,,---,0.00,VWS V14.01,2013-01-29 07:18:00,
2013-01-29 01:23:00,31.9,31.6,29.48,ESE,108,5.0,12.0,99,0.00,,---,0.00,VWS V14.01,2013-01-29 07:23:00,
2013-01-29 01:28:00,32.0,31.8,29.47,ESE,107,9.0,14.0,99,0.00,,---,0.00,VWS V14.01,2013-01-29 07:28:00,
2013-01-29 01:33:00,32.1,31.9,29.45,SE,129,5.0,16.0,99,0.00,,---,0.00,VWS V14.01,2013-01-29 07:33:00,
2013-01-29 01:38:00,32.1,31.9,29.46,SE,128,7.0,16.0,99,0.00,,---,0.00,VWS V14.01,2013-01-29 07:38:00,
2013-01-29 01:43:00,32.2,32.0,29.46,East,96,4.0,16.0,99,0.00,,---,0.00,VWS V14.01,2013-01-29 07:43:00,
2013-01-29 01:48:00,32.3,32.0,29.48,ESE,103,3.0,16.0,99,0.00,,---,0.00,VWS V14.01,2013-01-29 07:48:00,
2013-01-29 01:53:00,32.3,32.0,29.48,ENE,65,6.0,16.0,99,0.00,,---,0.00,VWS V14.01,2013-01-29 07:53:00,
2013-01-29 01:58:00,32.2,32.0,29.47,ESE,119,2.0,16.0,99,0.00,,---,0.00,VWS V14.01,2013-01-29 07:58:00,
2013-01-29 02:03:00,32.2,32.0,29.46,ESE,113,6.0,14.0,99,0.00,,---,0.00,VWS V14.01,2013-01-29 08:03:00,
2013-01-29 02:08:00,32.3,32.0,29.46,East,96,8.0,14.0,99,0.00,,---,0.00,VWS V14.01,2013-01-29 08:08:00,
2013-01-29 02:13:00,32.3,32.0,29.46,ESE,107,6.0,14.0,99,0.00,,---,0.00,VWS V14.01,2013-01-29 08:13:00,
2013-01-29 02:18:00,32.3,32.0,29.45,ESE,117,10.0,14.0,99,0.00,,---,0.00,VWS V14.01,2013-01-29 08:18:00,
2013-01-29 02:22:00,32.3,32.0,29.43,East,94,5.0,16.0,99,0.00,,---,0.00,VWS V14.01,2013-01-29 08:22:00,
2013-01-29 02:27:00,32.3,32.0,29.43,ESE,118,3.0,16.0,99,0.00,,---,0.00,VWS V14.01,2013-01-29 08:27:00,
2013-01-29 02:32:00,32.4,32.2,29.41,ENE,61,13.0,14.0,99,0.00,,---,0.00,VWS V14.01,2013-01-29 08:32:00,
2013-01-29 02:37:00,32.4,32.2,29.41,East,82,9.0,14.0,99,0.00,,---,0.00,VWS V14.01,2013-01-29 08:37:00,
2013-01-29 02:42:00,32.5,32.2,29.44,SE,126,0.0,14.0,99,0.00,,---,0.00,VWS V14.01,2013-01-29 08:42:00,
2013-01-29 02:47:00,32.6,32.3,29.43,ESE,123,2.0,14.0,99,0.00,,---,0.00,VWS V14.01,2013-01-29 08:47:00,
2013-01-29 02:52:00,32.8,32.5,29.42,East,100,4.0,14.0,99,0.00,,---,0.00,VWS V14.01,2013-01-29 08:52:00,
2013-01-29 02:57:00,32.9,32.7,29.42,East,81,2.0,14.0,99,0.00,,---,0.00,VWS V14.01,2013-01-29 08:57:00,
2013-01-29 03:02:00,33.0,32.8,29.45,West,270,0.0,8.0,99,0.00,,---,0.00,VWS V14.01,2013-01-29 09:02:00,
2013-01-29 03:07:00,33.0,32.8,29.44,ENE,65,3.0,8.0,99,0.00,,---,0.00,VWS V14.01,2013-01-29 09:07:00,
2013-01-29 03:12:00,33.0,32.8,29.44,ENE,72,8.0,8.0,99,0.00,,---,0.00,VWS V14.01,2013-01-29 09:12:00,
2013-01-29 03:17:00,33.2,33.0,29.43,ENE,65,3.0,8.0,99,0.00,,---,0.00,VWS V14.01,2013-01-29 09:17:00,
2013-01-29 03:22:00,33.3,33.0,29.43,East,90,3.0,8.0,99,0.00,,---,0.00,VWS V14.01,2013-01-29 09:22:00,
2013-01-29 03:27:00,33.3,33.0,29.42,East,85,4.0,8.0,99,0.00,,---,0.00,VWS V14.01,2013-01-29 09:27:00,
2013-01-29 03:32:00,33.4,33.2,29.41,ESE,105,4.0,11.0,99,0.00,,---,0.00,VWS V14.01,2013-01-29 09:32:00,
2013-01-29 03:37:00,33.5,33.2,29.43,East,90,4.0,11.0,99,0.00,,---,0.00,VWS V14.01,2013-01-29 09:37:00,
2013-01-29 03:42:00,33.6,33.3,29.42,ESE,105,5.0,11.0,99,0.00,,---,0.00,VWS V14.01,2013-01-29 09:42:00,
2013-01-29 03:47:00,33.6,33.3,29.39,ESE,103,6.0,13.0,99,0.00,,---,0.00,VWS V14.01,2013-01-29 09:47:00,
2013-01-29 03:52:00,33.7,33.5,29.42,SE,142,3.0,13.0,99,0.00,,---,0.00,VWS V14.01,2013-01-29 09:52:00,
2013-01-29 03:57:00,33.7,33.5,29.41,East,84,2.0,13.0,99,0.00,,---,0.00,VWS V14.01,2013-01-29 09:57:00,
2013-01-29 04:02:00,33.7,33.5,29.40,East,85,5.0,6.0,99,0.00,,---,0.00,VWS V14.01,2013-01-29 10:02:00,
2013-01-29 04:07:00,33.7,33.5,29.39,ENE,78,3.0,8.0,99,0.00,,---,0.00,VWS V14.01,2013-01-29 10:07:00,
2013-01-29 04:12:00,33.8,33.5,29.39,East,90,1.0,13.0,99,0.00,,---,0.00,VWS V14.01,2013-01-29 10:12:00,
2013-01-29 04:17:00,33.9,33.7,29.39,ENE,74,6.0,13.0,99,0.00,,---,0.00,VWS V14.01,2013-01-29 10:17:00,
2013-01-29 04:22:00,33.9,33.7,29.39,East,92,3.0,13.0,99,0.00,,---,0.00,VWS V14.01,2013-01-29 10:22:00,
2013-01-29 04:27:00,34.0,33.8,29.38,East,79,5.0,13.0,99,0.00,,---,0.00,VWS V14.01,2013-01-29 10:27:00,
2013-01-29 04:32:00,34.1,33.8,29.38,ESE,111,7.0,10.0,99,0.00,,---,0.00,VWS V14.01,2013-01-29 10:32:00,
2013-01-29 04:37:00,34.1,33.8,29.37,East,100,4.0,11.0,99,0.00,,---,0.00,VWS V14.01,2013-01-29 10:37:00,
2013-01-29 04:42:00,34.0,33.8,29.37,ESE,111,3.0,11.0,99,0.00,,---,0.00,VWS V14.01,2013-01-29 10:42:00,
2013-01-29 04:47:00,34.0,33.8,29.38,East,81,0.0,11.0,99,0.00,,---,0.00,VWS V14.01,2013-01-29 10:47:00,
2013-01-29 04:52:00,34.0,33.8,29.37,ENE,72,5.0,11.0,99,0.00,,---,0.00,VWS V14.01,2013-01-29 10:52:00,
2013-01-29 04:57:00,33.9,33.7,29.36,ENE,65,2.0,11.0,99,0.00,,---,0.00,VWS V14.01,2013-01-29 10:57:00,
2013-01-29 05:02:00,33.9,33.7,29.37,East,93,3.0,11.0,99,0.00,,---,0.00,VWS V14.01,2013-01-29 11:02:00,
2013-01-29 05:07:00,33.9,33.7,29.36,East,79,5.0,11.0,99,0.00,,---,0.00,VWS V14.01,2013-01-29 11:07:00,
2013-01-29 05:12:00,34.0,33.8,29.36,East,93,3.0,11.0,99,0.00,,---,0.00,VWS V14.01,2013-01-29 11:12:00,
2013-01-29 05:17:00,34.1,33.8,29.37,East,92,3.0,11.0,99,0.00,,---,0.00,VWS V14.01,2013-01-29 11:17:00,
2013-01-29 05:22:00,34.1,33.8,29.37,NE,38,4.0,11.0,99,0.00,,---,0.00,VWS V14.01,2013-01-29 11:22:00,
2013-01-29 05:27:00,34.2,34.0,29.37,East,90,3.0,11.0,99,0.00,,---,0.00,VWS V14.01,2013-01-29 11:27:00,
2013-01-29 05:32:00,34.2,34.0,29.36,ENE,70,3.0,6.0,99,0.00,,---,0.00,VWS V14.01,2013-01-29 11:32:00,
2013-01-29 05:37:00,34.3,34.0,29.36,East,82,0.0,6.0,99,0.00,,---,0.00,VWS V14.01,2013-01-29 11:37:00,
2013-01-29 05:42:00,34.3,34.0,29.35,ENE,66,3.0,6.0,99,0.00,,---,0.00,VWS V14.01,2013-01-29 11:42:00,
2013-01-29 05:47:00,34.4,34.2,29.36,ESE,105,0.0,6.0,99,0.00,,---,0.00,VWS V14.01,2013-01-29 11:47:00,
2013-01-29 05:52:00,34.4,34.2,29.35,ENE,71,4.0,6.0,99,0.00,,---,0.00,VWS V14.01,2013-01-29 11:52:00,
2013-01-29 05:57:00,34.4,34.2,29.35,East,88,6.0,6.0,99,0.00,,---,0.00,VWS V14.01,2013-01-29 11:57:00,
2013-01-29 06:02:00,34.4,34.2,29.35,East,95,1.0,2.0,99,0.00,,---,0.00,VWS V14.01,2013-01-29 12:02:00,
2013-01-29 06:07:00,34.4,34.2,29.35,East,96,2.0,5.0,99,0.00,,---,0.00,VWS V14.01,2013-01-29 12:07:00,
2013-01-29 06:12:00,34.4,34.2,29.34,ENE,57,3.0,6.0,99,0.00,,---,0.00,VWS V14.01,2013-01-29 12:12:00,
2013-01-29 06:17:00,34.4,34.2,29.34,ENE,66,2.0,6.0,99,0.00,,---,0.00,VWS V14.01,2013-01-29 12:17:00,
2013-01-29 06:22:00,34.5,34.2,29.34,East,90,4.0,6.0,99,0.00,,---,0.00,VWS V14.01,2013-01-29 12:22:00,
2013-01-29 06:27:00,34.6,34.3,29.34,East,80,4.0,6.0,99,0.00,,---,0.00,VWS V14.01,2013-01-29 12:27:00,
2013-01-29 06:32:00,34.6,34.3,29.34,ENE,68,4.0,8.0,99,0.00,,---,0.00,VWS V14.01,2013-01-29 12:32:00,
2013-01-29 06:37:00,34.8,34.5,29.34,ENE,75,3.0,8.0,99,0.00,,---,0.00,VWS V14.01,2013-01-29 12:37:00,
2013-01-29 06:42:00,34.8,34.5,29.34,ESE,114,0.0,8.0,99,0.00,,---,0.00,VWS V14.01,2013-01-29 12:42:00,
2013-01-29 06:47:00,34.9,34.7,29.34,East,101,4.0,8.0,99,0.00,,---,0.00,VWS V14.01,2013-01-29 12:47:00,
2013-01-29 06:52:00,35.0,34.8,29.34,East,83,3.0,9.0,99,0.00,,---,0.00,VWS V14.01,2013-01-29 12:52:00,
2013-01-29 06:57:00,35.0,34.8,29.33,ENE,73,6.0,9.0,99,0.00,,---,0.00,VWS V14.01,2013-01-29 12:57:00,
2013-01-29 07:02:00,35.1,34.8,29.33,SE,140,0.0,4.0,99,0.00,,---,0.00,VWS V14.01,2013-01-29 13:02:00,
2013-01-29 07:07:00,35.1,34.8,29.34,East,84,2.0,5.0,99,0.00,,---,0.00,VWS V14.01,2013-01-29 13:07:00,
2013-01-29 07:12:00,35.2,35.0,29.34,East,81,3.0,6.0,99,0.00,,---,0.00,VWS V14.01,2013-01-29 13:12:00,
2013-01-29 07:17:00,35.3,35.3,29.34,East,84,0.0,6.0,100,0.00,,---,0.00,VWS V14.01,2013-01-29 13:17:00,
2013-01-29 07:22:00,35.4,35.4,29.34,South,171,2.0,6.0,100,0.00,,---,0.00,VWS V14.01,2013-01-29 13:22:00,
2013-01-29 07:27:00,35.4,35.4,29.35,SSE,164,0.0,6.0,100,0.00,,---,0.00,VWS V14.01,2013-01-29 13:27:00,
2013-01-29 07:32:00,35.3,35.3,29.35,SSE,164,0.0,0.0,100,0.00,,---,0.00,VWS V14.01,2013-01-29 13:32:00,
2013-01-29 07:37:00,35.4,35.4,29.36,SSE,164,0.0,2.0,100,0.00,,---,0.00,VWS V14.01,2013-01-29 13:37:00,
2013-01-29 07:42:00,35.3,35.3,29.36,SSE,164,0.0,2.0,100,0.00,,---,0.00,VWS V14.01,2013-01-29 13:42:00,
2013-01-29 07:47:00,35.2,35.2,29.36,SSE,164,0.0,2.0,100,0.00,,---,0.00,VWS V14.01,2013-01-29 13:47:00,
2013-01-29 07:52:00,35.1,34.8,29.36,SSE,164,0.0,2.0,99,0.00,,---,0.00,VWS V14.01,2013-01-29 13:52:00,
2013-01-29 07:57:00,35.0,34.8,29.36,SSE,164,0.0,2.0,99,0.00,,---,0.00,VWS V14.01,2013-01-29 13:57:00,
2013-01-29 08:02:00,34.9,34.7,29.37,SSW,213,0.0,2.0,99,0.00,,---,0.00,VWS V14.01,2013-01-29 14:02:00,
2013-01-29 08:07:00,34.9,34.7,29.36,SSW,213,0.0,2.0,99,0.00,,---,0.00,VWS V14.01,2013-01-29 14:07:00,
2013-01-29 08:12:00,34.8,34.5,29.36,SSW,213,0.0,2.0,99,0.00,,---,0.00,VWS V14.01,2013-01-29 14:12:00,
2013-01-29 08:17:00,35.3,35.3,29.36,SSW,213,0.0,2.0,100,0.00,,---,0.00,VWS V14.01,2013-01-29 14:17:00,
2013-01-29 08:22:00,35.3,35.3,29.36,SSW,213,0.0,2.0,100,0.00,,---,0.00,VWS V14.01,2013-01-29 14:22:00,
2013-01-29 08:27:00,35.2,35.2,29.37,SSW,213,0.0,2.0,100,0.00,,---,0.00,VWS V14.01,2013-01-29 14:27:00,
2013-01-29 08:32:00,35.0,34.8,29.36,SSW,213,0.0,2.0,99,0.00,,---,0.00,VWS V14.01,2013-01-29 14:32:00,
2013-01-29 08:37:00,34.9,34.7,29.37,SSW,213,0.0,2.0,99,0.00,,---,0.00,VWS V14.01,2013-01-29 14:37:00,
2013-01-29 08:42:00,34.9,34.7,29.36,SSW,213,0.0,2.0,99,0.01,,---,0.01,VWS V14.01,2013-01-29 14:42:00,
2013-01-29 08:47:00,34.9,34.7,29.36,SSW,213,1.0,2.0,99,0.01,,---,0.01,VWS V14.01,2013-01-29 14:47:00,
2013-01-29 08:52:00,35.2,35.2,29.36,WSW,238,0.0,5.0,100,0.01,,---,0.01,VWS V14.01,2013-01-29 14:52:00,
2013-01-29 08:57:00,35.5,35.2,29.35,WSW,243,3.0,5.0,99,0.01,,---,0.01,VWS V14.01,2013-01-29 14:57:00,
2013-01-29 09:02:00,35.8,35.8,29.35,WSW,242,1.0,3.0,100,0.01,,---,0.01,VWS V14.01,2013-01-29 15:02:00,
2013-01-29 09:07:00,35.9,35.9,29.35,WSW,241,0.0,3.0,100,0.01,,---,0.01,VWS V14.01,2013-01-29 15:07:00,
2013-01-29 09:12:00,36.0,36.0,29.35,WSW,241,0.0,3.0,100,0.01,,---,0.01,VWS V14.01,2013-01-29 15:12:00,
2013-01-29 09:17:00,36.0,36.0,29.35,WSW,240,0.0,3.0,100,0.01,,---,0.01,VWS V14.01,2013-01-29 15:17:00,
2013-01-29 09:22:00,36.1,36.1,29.35,WSW,240,0.0,3.0,100,0.01,,---,0.01,VWS V14.01,2013-01-29 15:22:00,
2013-01-29 09:27:00,36.1,36.1,29.33,WSW,240,0.0,3.0,100,0.02,,---,0.02,VWS V14.01,2013-01-29 15:27:00,
2013-01-29 09:32:00,36.2,36.2,29.34,WSW,239,2.0,2.0,100,0.02,,---,0.02,VWS V14.01,2013-01-29 15:32:00,
2013-01-29 09:37:00,36.2,36.2,29.33,South,188,0.0,5.0,100,0.02,,---,0.02,VWS V14.01,2013-01-29 15:37:00,
2013-01-29 09:42:00,36.2,36.2,29.35,SSE,168,3.0,5.0,100,0.02,,---,0.02,VWS V14.01,2013-01-29 15:42:00,
2013-01-29 09:47:00,36.2,36.2,29.35,SSW,208,4.0,5.0,100,0.02,,---,0.02,VWS V14.01,2013-01-29 15:47:00,
2013-01-29 09:52:00,36.2,36.2,29.35,South,191,4.0,6.0,100,0.02,,---,0.02,VWS V14.01,2013-01-29 15:52:00,
2013-01-29 09:57:00,36.2,36.2,29.35,SSW,203,5.0,9.0,100,0.02,,---,0.02,VWS V14.01,2013-01-29 15:57:00,
2013-01-29 10:02:00,36.1,36.1,29.36,SW,234,2.0,5.0,100,0.01,,---,0.02,VWS V14.01,2013-01-29 16:02:00,
2013-01-29 10:07:00,36.1,36.1,29.36,SW,220,5.0,6.0,100,0.02,,---,0.03,VWS V14.01,2013-01-29 16:07:00,
2013-01-29 10:12:00,36.0,36.0,29.36,West,260,7.0,10.0,100,0.02,,---,0.03,VWS V14.01,2013-01-29 16:12:00,
2013-01-29 10:17:00,35.9,35.9,29.37,SW,229,5.0,10.0,100,0.02,,---,0.03,VWS V14.01,2013-01-29 16:17:00,
2013-01-29 10:22:00,35.9,35.9,29.38,SW,231,4.0,10.0,100,0.02,,---,0.03,VWS V14.01,2013-01-29 16:22:00,
2013-01-29 10:27:00,35.8,35.8,29.38,SW,227,4.0,10.0,100,0.02,,---,0.03,VWS V14.01,2013-01-29 16:27:00,
2013-01-29 10:32:00,35.9,35.9,29.37,West,272,6.0,10.0,100,0.01,,---,0.03,VWS V14.01,2013-01-29 16:32:00,
2013-01-29 10:37:00,35.9,35.9,29.38,WSW,240,3.0,10.0,100,0.01,,---,0.03,VWS V14.01,2013-01-29 16:37:00,
2013-01-29 10:42:00,35.9,35.9,29.38,SSW,213,3.0,10.0,100,0.02,,---,0.04,VWS V14.01,2013-01-29 16:42:00,
2013-01-29 10:47:00,35.9,35.9,29.39,WSW,240,11.0,21.0,100,0.02,,---,0.04,VWS V14.01,2013-01-29 16:47:00,
2013-01-29 10:52:00,35.7,35.5,29.39,West,267,6.0,21.0,99,0.02,,---,0.04,VWS V14.01,2013-01-29 16:52:00,
2013-01-29 10:57:00,35.7,35.5,29.39,West,264,3.0,21.0,99,0.02,,---,0.04,VWS V14.01,2013-01-29 16:57:00,
2013-01-29 11:02:00,35.6,35.3,29.41,SW,232,7.0,7.0,99,0.02,,---,0.04,VWS V14.01,2013-01-29 17:02:00,
2013-01-29 11:07:00,35.5,35.2,29.41,SW,227,9.0,13.0,99,0.02,,---,0.04,VWS V14.01,2013-01-29 17:07:00,
2013-01-29 11:12:00,35.5,35.2,29.41,SW,223,3.0,13.0,99,0.03,,---,0.05,VWS V14.01,2013-01-29 17:12:00,
2013-01-29 11:17:00,35.3,35.3,29.41,SW,226,5.0,13.0,100,0.03,,---,0.05,VWS V14.01,2013-01-29 17:17:00,
2013-01-29 11:22:00,35.1,34.8,29.42,SSE,157,4.0,13.0,99,0.03,,---,0.05,VWS V14.01,2013-01-29 17:22:00,
2013-01-29 11:27:00,34.9,34.7,29.42,WSW,241,4.0,13.0,99,0.03,,---,0.05,VWS V14.01,2013-01-29 17:27:00,
2013-01-29 11:32:00,34.8,34.5,29.41,WSW,241,3.0,6.0,99,0.02,,---,0.05,VWS V14.01,2013-01-29 17:32:00,
2013-01-29 11:37:00,34.7,34.5,29.41,SW,222,11.0,11.0,99,0.02,,---,0.05,VWS V14.01,2013-01-29 17:37:00,
2013-01-29 11:42:00,34.7,34.5,29.41,West,274,11.0,12.0,99,0.02,,---,0.05,VWS V14.01,2013-01-29 17:42:00,
2013-01-29 11:47:00,34.4,34.2,29.41,West,271,12.0,15.0,99,0.03,,---,0.06,VWS V14.01,2013-01-29 17:47:00,
2013-01-29 11:52:00,34.3,34.0,29.41,WSW,254,7.0,15.0,99,0.03,,---,0.06,VWS V14.01,2013-01-29 17:52:00,
2013-01-29 11:57:00,34.0,33.8,29.41,WSW,253,12.0,15.0,99,0.03,,---,0.06,VWS V14.01,2013-01-29 17:57:00,
2013-01-29 12:03:00,33.9,33.7,29.41,SW,233,7.0,7.0,99,0.00,,---,0.06,VWS V14.01,2013-01-29 18:03:00,
2013-01-29 12:08:00,33.8,33.5,29.42,West,268,3.0,13.0,99,0.02,,---,0.06,VWS V14.01,2013-01-29 18:08:00,
2013-01-29 12:13:00,33.7,33.5,29.41,SW,227,2.0,14.0,99,0.02,,---,0.06,VWS V14.01,2013-01-29 18:13:00,
2013-01-29 12:18:00,33.7,33.5,29.42,WSW,249,11.0,14.0,99,0.02,,---,0.06,VWS V14.01,2013-01-29 18:18:00,
2013-01-29 12:23:00,33.6,33.3,29.41,West,259,7.0,14.0,99,0.02,,---,0.06,VWS V14.01,2013-01-29 18:23:00,
2013-01-29 12:28:00,33.5,33.2,29.41,WSW,247,7.0,14.0,99,0.02,,---,0.06,VWS V14.01,2013-01-29 18:28:00,
2013-01-29 12:33:00,33.5,33.2,29.41,WSW,246,9.0,13.0,99,0.01,,---,0.06,VWS V14.01,2013-01-29 18:33:00,
2013-01-29 12:38:00,33.5,33.2,29.40,SW,235,6.0,13.0,99,0.01,,---,0.06,VWS V14.01,2013-01-29 18:38:00,
2013-01-29 12:43:00,33.4,33.2,29.40,WSW,244,5.0,13.0,99,0.01,,---,0.06,VWS V14.01,2013-01-29 18:43:00,
2013-01-29 12:48:00,33.4,33.2,29.40,West,267,6.0,14.0,99,0.02,,---,0.07,VWS V14.01,2013-01-29 18:48:00,
2013-01-29 12:53:00,33.4,33.2,29.40,WSW,241,5.0,14.0,99,0.02,,---,0.07,VWS V14.01,2013-01-29 18:53:00,
2013-01-29 12:58:00,33.5,33.2,29.39,West,264,6.0,14.0,99,0.02,,---,0.07,VWS V14.01,2013-01-29 18:58:00,
2013-01-29 13:03:00,33.4,33.2,29.40,WSW,258,4.0,12.0,99,0.01,,---,0.07,VWS V14.01,2013-01-29 19:03:00,
2013-01-29 13:08:00,33.3,33.0,29.40,SW,230,11.0,14.0,99,0.01,,---,0.07,VWS V14.01,2013-01-29 19:08:00,
2013-01-29 13:13:00,33.3,33.0,29.40,WSW,252,5.0,15.0,99,0.01,,---,0.07,VWS V14.01,2013-01-29 19:13:00,
2013-01-29 13:18:00,33.2,33.0,29.40,WSW,238,3.0,15.0,99,0.01,,---,0.07,VWS V14.01,2013-01-29 19:18:00,
2013-01-29 13:23:00,33.2,33.0,29.40,SSW,197,3.0,15.0,99,0.01,,---,0.07,VWS V14.01,2013-01-29 19:23:00,
2013-01-29 13:28:00,33.2,33.0,29.40,West,261,6.0,15.0,99,0.01,,---,0.07,VWS V14.01,2013-01-29 19:28:00,
2013-01-29 13:33:00,33.2,33.0,29.40,WNW,298,4.0,12.0,99,0.01,,---,0.07,VWS V14.01,2013-01-29 19:33:00,
2013-01-29 13:38:00,33.2,33.0,29.40,West,267,9.0,13.0,99,0.01,,---,0.07,VWS V14.01,2013-01-29 19:38:00,
2013-01-29 13:43:00,33.2,33.0,29.40,WSW,254,2.0,13.0,99,0.01,,---,0.07,VWS V14.01,2013-01-29 19:43:00,
2013-01-29 13:48:00,33.2,33.0,29.40,West,272,2.0,13.0,99,0.01,,---,0.07,VWS V14.01,2013-01-29 19:48:00,
2013-01-29 13:53:00,33.2,33.0,29.40,WSW,256,3.0,13.0,99,0.01,,---,0.07,VWS V14.01,2013-01-29 19:53:00,
2013-01-29 13:58:00,33.2,33.0,29.40,WNW,289,7.0,13.0,99,0.01,,---,0.07,VWS V14.01,2013-01-29 19:58:00,
2013-01-29 14:03:00,33.1,32.8,29.39,SW,223,4.0,12.0,99,0.00,,---,0.07,VWS V14.01,2013-01-29 20:03:00,
2013-01-29 14:08:00,33.1,32.8,29.39,WNW,302,6.0,12.0,99,0.01,,---,0.08,VWS V14.01,2013-01-29 20:08:00,
2013-01-29 14:13:00,33.0,32.8,29.39,WSW,257,5.0,12.0,99,0.01,,---,0.08,VWS V14.01,2013-01-29 20:13:00,
2013-01-29 14:18:00,32.9,32.7,29.39,WNW,289,3.0,12.0,99,0.01,,---,0.08,VWS V14.01,2013-01-29 20:18:00,
2013-01-29 14:23:00,32.9,32.7,29.39,NNW,329,9.0,12.0,99,0.01,,---,0.08,VWS V14.01,2013-01-29 20:23:00,
2013-01-29 14:28:00,32.9,32.7,29.40,West,280,7.0,12.0,99,0.01,,---,0.08,VWS V14.01,2013-01-29 20:28:00,
2013-01-29 14:33:00,32.9,32.7,29.40,WNW,295,10.0,14.0,99,0.01,,---,0.08,VWS V14.01,2013-01-29 20:33:00,
2013-01-29 14:38:00,32.9,32.7,29.40,WNW,284,2.0,14.0,99,0.01,,---,0.08,VWS V14.01,2013-01-29 20:38:00,
2013-01-29 14:43:00,32.9,32.7,29.40,West,271,2.0,14.0,99,0.01,,---,0.08,VWS V14.01,2013-01-29 20:43:00,
2013-01-29 14:48:00,32.9,32.7,29.40,WNW,298,5.0,14.0,99,0.01,,---,0.08,VWS V14.01,2013-01-29 20:48:00,
2013-01-29 14:53:00,32.8,32.5,29.40,West,261,2.0,14.0,99,0.01,,---,0.08,VWS V14.01,2013-01-29 20:53:00,
2013-01-29 14:58:00,32.9,32.7,29.40,WNW,293,4.0,14.0,99,0.01,,---,0.08,VWS V14.01,2013-01-29 20:58:00,
2013-01-29 15:03:00,32.9,32.7,29.39,West,281,2.0,6.0,99,0.01,,---,0.08,VWS V14.01,2013-01-29 21:03:00,
2013-01-29 15:08:00,32.9,32.7,29.39,NW,319,11.0,11.0,99,0.01,,---,0.08,VWS V14.01,2013-01-29 21:08:00,
2013-01-29 15:13:00,32.8,32.5,29.39,West,281,3.0,15.0,99,0.01,,---,0.08,VWS V14.01,2013-01-29 21:13:00,
2013-01-29 15:18:00,32.8,32.5,29.40,WNW,296,4.0,15.0,99,0.01,,---,0.08,VWS V14.01,2013-01-29 21:18:00,
2013-01-29 15:23:00,32.9,32.7,29.40,West,271,4.0,15.0,99,0.01,,---,0.08,VWS V14.01,2013-01-29 21:23:00,
2013-01-29 15:28:00,33.0,32.8,29.41,WNW,291,4.0,15.0,99,0.01,,---,0.08,VWS V14.01,2013-01-29 21:28:00,
2013-01-29 15:33:00,32.9,32.7,29.41,WNW,286,4.0,7.0,99,0.00,,---,0.08,VWS V14.01,2013-01-29 21:33:00,
2013-01-29 15:38:00,33.0,32.8,29.42,West,271,1.0,7.0,99,0.00,,---,0.08,VWS V14.01,2013-01-29 21:38:00,
2013-01-29 15:43:00,33.0,32.8,29.41,WNW,297,4.0,7.0,99,0.00,,---,0.08,VWS V14.01,2013-01-29 21:43:00,
2013-01-29 15:48:00,33.0,32.5,29.42,West,276,6.0,7.0,98,0.00,,---,0.08,VWS V14.01,2013-01-29 21:48:00,
2013-01-29 15:53:00,33.0,32.5,29.41,WNW,300,2.0,7.0,98,0.00,,---,0.08,VWS V14.01,2013-01-29 21:53:00,
2013-01-29 15:58:00,33.0,32.5,29.42,WNW,297,5.0,7.0,98,0.00,,---,0.08,VWS V14.01,2013-01-29 21:58:00,
2013-01-29 16:03:00,32.9,32.4,29.42,WNW,284,3.0,6.0,98,0.00,,---,0.08,VWS V14.01,2013-01-29 22:03:00,
2013-01-29 16:08:00,32.9,32.4,29.42,WNW,294,5.0,7.0,98,0.00,,---,0.08,VWS V14.01,2013-01-29 22:08:00,
2013-01-29 16:13:00,32.9,32.4,29.42,NW,314,5.0,11.0,98,0.00,,---,0.08,VWS V14.01,2013-01-29 22:13:00,
2013-01-29 16:18:00,32.9,32.4,29.42,WSW,254,7.0,11.0,98,0.00,,---,0.08,VWS V14.01,2013-01-29 22:18:00,
2013-01-29 16:23:00,32.8,32.0,29.42,WNW,300,5.0,11.0,97,0.00,,---,0.08,VWS V14.01,2013-01-29 22:23:00,
2013-01-29 16:28:00,32.8,32.0,29.41,WNW,285,5.0,11.0,97,0.00,,---,0.08,VWS V14.01,2013-01-29 22:28:00,
2013-01-29 16:33:00,32.7,31.9,29.42,West,267,4.0,7.0,97,0.00,,---,0.08,VWS V14.01,2013-01-29 22:33:00,
2013-01-29 16:38:00,32.6,31.8,29.41,WNW,302,6.0,8.0,97,0.00,,---,0.08,VWS V14.01,2013-01-29 22:38:00,
2013-01-29 16:43:00,32.6,31.8,29.41,WNW,286,5.0,11.0,97,0.00,,---,0.08,VWS V14.01,2013-01-29 22:43:00,
2013-01-29 16:48:00,32.6,31.6,29.42,NW,308,10.0,11.0,96,0.00,,---,0.08,VWS V14.01,2013-01-29 22:48:00,
2013-01-29 16:53:00,32.6,31.6,29.41,WNW,295,3.0,14.0,96,0.00,,---,0.08,VWS V14.01,2013-01-29 22:53:00,
2013-01-29 16:58:00,32.6,31.6,29.41,NW,311,5.0,14.0,96,0.00,,---,0.08,VWS V14.01,2013-01-29 22:58:00,
2013-01-29 17:03:00,32.6,31.6,29.42,WNW,300,11.0,17.0,96,0.00,,---,0.08,VWS V14.01,2013-01-29 23:03:00,
2013-01-29 17:08:00,32.6,31.6,29.41,NNW,341,4.0,17.0,96,0.00,,---,0.08,VWS V14.01,2013-01-29 23:08:00,
2013-01-29 17:13:00,32.6,31.6,29.40,WNW,287,5.0,17.0,96,0.00,,---,0.08,VWS V14.01,2013-01-29 23:13:00,
2013-01-29 17:18:00,32.5,31.2,29.40,WNW,288,7.0,17.0,95,0.00,,---,0.08,VWS V14.01,2013-01-29 23:18:00,
2013-01-29 17:23:00,32.5,31.2,29.40,NW,308,5.0,17.0,95,0.00,,---,0.08,VWS V14.01,2013-01-29 23:23:00,
2013-01-29 17:28:00,32.5,31.2,29.41,WNW,295,6.0,17.0,95,0.00,,---,0.08,VWS V14.01,2013-01-29 23:28:00,
2013-01-29 17:33:00,32.5,31.2,29.40,NW,306,5.0,11.0,95,0.00,,---,0.08,VWS V14.01,2013-01-29 23:33:00,
2013-01-29 17:38:00,32.5,31.2,29.40,WNW,296,11.0,14.0,95,0.00,,---,0.08,VWS V14.01,2013-01-29 23:38:00,
2013-01-29 17:43:00,32.5,31.2,29.40,NW,316,8.0,15.0,95,0.00,,---,0.08,VWS V14.01,2013-01-29 23:43:00,
2013-01-29 17:48:00,32.5,31.0,29.41,WNW,298,3.0,15.0,94,0.00,,---,0.08,VWS V14.01,2013-01-29 23:48:00,
2013-01-29 17:53:00,32.5,31.0,29.41,NNW,327,7.0,15.0,94,0.00,,---,0.08,VWS V14.01,2013-01-29 23:53:00,
2013-01-29 17:58:00,32.5,31.0,29.42,NW,304,9.0,19.0,94,0.00,,---,0.08,VWS V14.01,2013-01-29 23:58:00,
2013-01-29 18:03:00,32.5,31.0,29.42,WNW,284,3.0,6.0,94,0.00,,---,0.08,VWS V14.01,2013-01-30 00:03:00,
2013-01-29 18:08:00,32.5,31.0,29.42,NW,313,7.0,13.0,94,0.00,,---,0.08,VWS V14.01,2013-01-30 00:08:00,
2013-01-29 18:13:00,32.6,30.8,29.42,WNW,303,10.0,13.0,93,0.00,,---,0.08,VWS V14.01,2013-01-30 00:13:00,
2013-01-29 18:18:00,32.6,30.8,29.43,NW,311,5.0,13.0,93,0.00,,---,0.08,VWS V14.01,2013-01-30 00:18:00,
2013-01-29 18:23:00,32.6,30.8,29.43,WNW,302,3.0,13.0,93,0.00,,---,0.08,VWS V14.01,2013-01-30 00:23:00,
2013-01-29 18:28:00,32.6,30.8,29.44,WNW,284,5.0,13.0,93,0.00,,---,0.08,VWS V14.01,2013-01-30 00:28:00,
2013-01-29 18:33:00,32.7,30.9,29.43,West,281,10.0,13.0,93,0.00,,---,0.08,VWS V14.01,2013-01-30 00:33:00,
2013-01-29 18:38:00,32.7,30.6,29.44,NNW,329,11.0,16.0,92,0.00,,---,0.08,VWS V14.01,2013-01-30 00:38:00,
2013-01-29 18:43:00,32.8,30.7,29.44,NW,306,7.0,16.0,92,0.00,,---,0.08,VWS V14.01,2013-01-30 00:43:00,
2013-01-29 18:48:00,32.7,30.6,29.44,NW,307,16.0,16.0,92,0.00,,---,0.08,VWS V14.01,2013-01-30 00:48:00,
2013-01-29 18:53:00,32.7,30.6,29.43,WNW,301,7.0,16.0,92,0.00,,---,0.08,VWS V14.01,2013-01-30 00:53:00,
2013-01-29 18:58:00,32.7,30.6,29.42,WNW,295,7.0,16.0,92,0.00,,---,0.08,VWS V14.01,2013-01-30 00:58:00,
2013-01-29 19:03:00,32.6,30.5,29.40,NW,311,5.0,11.0,92,0.00,,---,0.08,VWS V14.01,2013-01-30 01:03:00,
2013-01-29 19:08:00,32.5,30.7,29.40,WNW,296,5.0,12.0,93,0.00,,---,0.08,VWS V14.01,2013-01-30 01:08:00,
2013-01-29 19:13:00,32.5,30.7,29.39,NW,311,11.0,16.0,93,0.00,,---,0.08,VWS V14.01,2013-01-30 01:13:00,
2013-01-29 19:18:00,32.5,30.7,29.40,West,281,3.0,17.0,93,0.00,,---,0.08,VWS V14.01,2013-01-30 01:18:00,
2013-01-29 19:23:00,32.5,30.7,29.40,NW,311,5.0,17.0,93,0.00,,---,0.08,VWS V14.01,2013-01-30 01:23:00,
2013-01-29 19:28:00,32.5,30.7,29.40,WNW,292,5.0,17.0,93,0.00,,---,0.08,VWS V14.01,2013-01-30 01:28:00,
2013-01-29 19:33:00,32.5,30.4,29.40,WNW,301,5.0,15.0,92,0.00,,---,0.08,VWS V14.01,2013-01-30 01:33:00,
2013-01-29 19:38:00,32.5,30.4,29.40,WNW,286,7.0,15.0,92,0.00,,---,0.08,VWS V14.01,2013-01-30 01:38:00,
2013-01-29 19:43:00,32.5,30.4,29.40,NW,319,15.0,17.0,92,0.00,,---,0.08,VWS V14.01,2013-01-30 01:43:00,
2013-01-29 19:48:00,32.5,30.4,29.40,WNW,291,10.0,17.0,92,0.00,,---,0.08,VWS V14.01,2013-01-30 01:48:00,
2013-01-29 19:56:00,32.5,30.4,29.40,WNW,300,6.0,17.0,92,0.00,,---,0.08,VWS V14.01,2013-01-30 01:56:00,
2013-01-29 20:01:00,32.5,30.4,29.41,WNW,300,14.0,17.0,92,0.00,,---,0.08,VWS V14.01,2013-01-30 02:01:00,
2013-01-29 20:06:00,32.5,30.2,29.41,WNW,299,14.0,17.0,91,0.00,,---,0.08,VWS V14.01,2013-01-30 02:06:00,
2013-01-29 20:11:00,32.5,30.2,29.41,WNW,296,5.0,18.0,91,0.00,,---,0.08,VWS V14.01,2013-01-30 02:11:00,
2013-01-29 20:16:00,32.5,30.2,29.42,WNW,302,7.0,18.0,91,0.00,,---,0.08,VWS V14.01,2013-01-30 02:16:00,
2013-01-29 20:21:00,32.5,30.2,29.43,NW,306,5.0,18.0,91,0.00,,---,0.08,VWS V14.01,2013-01-30 02:21:00,
2013-01-29 20:26:00,32.6,30.3,29.44,NW,314,3.0,18.0,91,0.00,,---,0.08,VWS V14.01,2013-01-30 02:26:00,
2013-01-29 20:31:00,32.6,30.0,29.44,NW,304,9.0,17.0,90,0.00,,---,0.08,VWS V14.01,2013-01-30 02:31:00,
2013-01-29 20:36:00,32.6,30.0,29.45,NW,304,6.0,17.0,90,0.00,,---,0.08,VWS V14.01,2013-01-30 02:36:00,
2013-01-29 20:41:00,32.6,30.0,29.44,WNW,288,7.0,17.0,90,0.00,,---,0.08,VWS V14.01,2013-01-30 02:41:00,
2013-01-29 20:46:00,32.6,30.0,29.44,NW,311,6.0,17.0,90,0.00,,---,0.08,VWS V14.01,2013-01-30 02:46:00,
2013-01-29 20:51:00,32.5,29.9,29.44,WNW,290,11.0,17.0,90,0.00,,---,0.08,VWS V14.01,2013-01-30 02:51:00,
2013-01-29 20:56:00,32.5,29.9,29.43,NW,324,7.0,18.0,90,0.00,,---,0.08,VWS V14.01,2013-01-30 02:56:00,
2013-01-29 21:01:00,32.5,29.6,29.43,NW,308,14.0,15.0,89,0.00,,---,0.08,VWS V14.01,2013-01-30 03:01:00,
2013-01-29 21:06:00,32.5,29.6,29.41,NW,325,13.0,15.0,89,0.00,,---,0.08,VWS V14.01,2013-01-30 03:06:00,
2013-01-29 21:11:00,32.4,29.5,29.41,NW,311,4.0,17.0,89,0.00,,---,0.08,VWS V14.01,2013-01-30 03:11:00,
2013-01-29 21:16:00,32.4,29.5,29.39,NNW,328,13.0,17.0,89,0.00,,---,0.08,VWS V14.01,2013-01-30 03:16:00,
2013-01-29 21:21:00,32.3,29.7,29.39,NW,314,7.0,17.0,90,0.00,,---,0.08,VWS V14.01,2013-01-30 03:21:00,
2013-01-29 21:26:00,32.4,29.8,29.40,NW,309,5.0,17.0,90,0.00,,---,0.08,VWS V14.01,2013-01-30 03:26:00,
2013-01-29 21:31:00,32.4,29.8,29.40,NW,313,21.0,21.0,90,0.00,,---,0.08,VWS V14.01,2013-01-30 03:31:00,
2013-01-29 21:36:00,32.3,29.7,29.40,NW,319,5.0,21.0,90,0.00,,---,0.08,VWS V14.01,2013-01-30 03:36:00,
2013-01-29 21:41:00,32.4,29.8,29.41,WNW,301,2.0,21.0,90,0.00,,---,0.08,VWS V14.01,2013-01-30 03:41:00,
2013-01-29 21:46:00,32.3,29.7,29.42,WNW,301,5.0,21.0,90,0.00,,---,0.08,VWS V14.01,2013-01-30 03:46:00,
2013-01-29 21:51:00,32.4,29.8,29.43,NW,314,7.0,21.0,90,0.00,,---,0.08,VWS V14.01,2013-01-30 03:51:00,
2013-01-29 21:56:00,32.4,29.8,29.44,NNW,330,12.0,21.0,90,0.00,,---,0.08,VWS V14.01,2013-01-30 03:56:00,
2013-01-29 22:01:00,32.5,29.9,29.44,NW,309,7.0,7.0,90,0.00,,---,0.08,VWS V14.01,2013-01-30 04:01:00,
2013-01-29 22:06:00,32.5,29.9,29.44,WNW,288,5.0,10.0,90,0.00,,---,0.08,VWS V14.01,2013-01-30 04:06:00,
2013-01-29 22:11:00,32.5,29.9,29.44,WNW,302,5.0,14.0,90,0.00,,---,0.08,VWS V14.01,2013-01-30 04:11:00,
2013-01-29 22:16:00,32.5,29.9,29.44,NW,321,6.0,16.0,90,0.00,,---,0.08,VWS V14.01,2013-01-30 04:16:00,
2013-01-29 22:21:00,32.5,29.9,29.43,NW,304,5.0,16.0,90,0.00,,---,0.08,VWS V14.01,2013-01-30 04:21:00,
2013-01-29 22:26:00,32.4,29.8,29.42,NW,315,7.0,16.0,90,0.00,,---,0.08,VWS V14.01,2013-01-30 04:26:00,
2013-01-29 22:31:00,32.4,29.8,29.42,NW,311,11.0,11.0,90,0.00,,---,0.08,VWS V14.01,2013-01-30 04:31:00,
2013-01-29 22:36:00,32.4,29.8,29.42,WNW,300,6.0,15.0,90,0.00,,---,0.08,VWS V14.01,2013-01-30 04:36:00,
2013-01-29 22:41:00,32.4,29.8,29.43,WNW,295,5.0,17.0,90,0.00,,---,0.08,VWS V14.01,2013-01-30 04:41:00,
2013-01-29 22:46:00,32.4,29.8,29.43,WNW,302,13.0,17.0,90,0.00,,---,0.08,VWS V14.01,2013-01-30 04:46:00,
2013-01-29 22:51:00,32.4,29.8,29.44,NW,307,15.0,17.0,90,0.00,,---,0.08,VWS V14.01,2013-01-30 04:51:00,
2013-01-29 22:56:00,32.4,29.8,29.45,NW,310,7.0,17.0,90,0.00,,---,0.08,VWS V14.01,2013-01-30 04:56:00,
2013-01-29 23:00:00,32.4,29.8,29.45,WNW,298,12.0,17.0,90,0.00,,---,0.08,VWS V14.01,2013-01-30 05:00:00,
2013-01-29 23:02:00,32.4,29.8,29.45,WNW,290,5.0,11.0,90,0.00,,---,0.08,VWS V14.01,2013-01-30 05:02:00,
2013-01-29 23:03:00,32.3,29.7,29.45,NW,315,7.0,11.0,90,0.00,,---,0.08,VWS V14.01,2013-01-30 05:03:00,
2013-01-29 23:08:00,32.1,29.5,29.44,NW,306,13.0,17.0,90,0.00,,---,0.08,VWS V14.01,2013-01-30 05:08:00,
2013-01-29 23:13:00,32.0,29.7,29.44,NW,318,9.0,17.0,91,0.00,,---,0.08,VWS V14.01,2013-01-30 05:13:00,
2013-01-29 23:18:00,31.9,29.6,29.44,NW,308,15.0,17.0,91,0.00,,---,0.08,VWS V14.01,2013-01-30 05:18:00,
2013-01-29 23:23:00,31.8,29.5,29.44,WNW,287,14.0,17.0,91,0.00,,---,0.08,VWS V14.01,2013-01-30 05:23:00,
2013-01-29 23:28:00,31.8,29.5,29.43,NNW,333,14.0,17.0,91,0.00,,---,0.08,VWS V14.01,2013-01-30 05:28:00,
2013-01-29 23:33:00,31.6,29.0,29.43,NW,308,21.0,21.0,90,0.00,,---,0.08,VWS V14.01,2013-01-30 05:33:00,
2013-01-29 23:38:00,31.5,29.2,29.43,NW,314,16.0,22.0,91,0.00,,---,0.08,VWS V14.01,2013-01-30 05:38:00,
2013-01-29 23:43:00,31.4,29.1,29.41,NW,315,12.0,22.0,91,0.00,,---,0.08,VWS V14.01,2013-01-30 05:43:00,
2013-01-29 23:48:00,31.2,28.9,29.41,NW,306,12.0,22.0,91,0.00,,---,0.08,VWS V14.01,2013-01-30 05:48:00,
2013-01-29 23:53:00,31.1,28.8,29.42,WNW,296,9.0,22.0,91,0.00,,---,0.08,VWS V14.01,2013-01-30 05:53:00,
2013-01-29 23:58:00,31.0,28.7,29.40,NW,304,7.0,22.0,91,0.00,,---,0.08,VWS V14.01,2013-01-30 05:58:00,